KUIPER-00134

导读

KUIPER-00158是美国亚马逊公司“柯伊伯计划”低轨卫星互联网项目中的一颗卫星,于2025年9月25日发射入轨。该项目计划部署超过3000颗低轨卫星,旨在为全球尤其是偏远地区提供高速低延迟、性价比优异的互联网接入服务。作为星座组网进程中的卫星,它承担着扩展全球网络覆盖,推进太空通信与云服务一体化基础设施构建的任务,助力项目实现全球宽带覆盖的部署目标。

基本信息
目录编号:
65776
目录名称:
KUIPER-00158
国际标识:
2025-217Q
轨道中心:
EARTH
卫星名称:
KUIPER-00158
卫星全名:
KUIPER-00134
卫星状态:
在轨 (已飞行351 天)
发射日期:
2025-09-25 UTC
国别 :
美国 (US)
星等 :
--
该卫星已列入 空间交会检测服务 Space Conjunction Data Service (SCDS) ,当前飞行风险评估等级: 无高风险
轨道信息
数据来源 国际轨道数据
星历时间: 2026-09-10T18:58:24+0800
1天前
查看轨道信息
半长轴: 7001.25km
偏心率: 0.0000279
轨道倾角: 51.897°
近地点辐角 330.618°
升交点赤经 306.538°
平近点角 29.477°
近地点: 622.917km
远地点: 623.309km
周期: 97.168分钟
每日圈数: 14.8197
详细信息
使用方式:
暂无
2D轨道图
3D轨道图
轨道高度分析图
轨道倾角分析图
轨道综合分析图
查看轨道综合分析图
与全量物体交会距离演化趋势
与全量物体交会风险概率演化趋势